H1 CPF 2 NER 2025 11 3 9 307 01 glonass132 H2 1401201 9132 39620 2025 11 3 0 0 0 2025 11 6 23 45 0 900 1 1 0 0 0 1 H9 10 0 60982 0.00000 0 -11118211.487 10819635.568 -20237892.330 10 0 60982 900.00000 0 -10709985.768 8261841.374 -21612188.081 10 0 60982 1800.00000 0 -10486462.380 5537192.264 -22566169.005 10 0 60982 2700.00000 0 -10468482.155 2712628.659 -23081105.119 10 0 60982 3600.00000 0 -10664743.336 -141406.301 -23146807.394 10 0 60982 4500.00000 0 -11071382.935 -2953662.305 -22761839.468 10 0 60982 5400.00000 0 -11672106.207 -5654812.224 -21933557.847 10 0 60982 6300.00000 0 -12438860.017 -8180103.583 -20677978.855 10 0 60982 7200.00000 0 -13333022.697 -10471820.385 -19019474.084 10 0 60982 8100.00000 0 -14307060.766 -12481452.273 -16990299.571 10 0 60982 9000.00000 0 -15306582.813 -14171480.112 -14629967.392 10 0 60982 9900.00000 0 -16272703.471 -15516703.123 -11984471.780 10 0 60982 10800.00000 0 -17144616.897 -16505052.111 -9105385.044 10 0 60982 11700.00000 0 -17862269.873 -17137855.256 -6048841.507 10 0 60982 12600.00000 0 -18369020.142 -17429546.249 -2874430.257 10 0 60982 13500.00000 0 -18614166.141 -17406828.606 355980.430 10 0 60982 14400.00000 0 -18555239.802 -17107333.228 3579462.637 10 0 60982 15300.00000 0 -18159964.402 -16577828.024 6733266.975 10 0 60982 16200.00000 0 -17407793.997 -15872057.455 9756053.847 10 0 60982 17100.00000 0 -16290969.140 -15048305.379 12589092.699 10 0 60982 18000.00000 0 -14815044.512 -14166786.019 15177405.082 10 0 60982 18900.00000 0 -12998866.687 -13286974.543 17470829.089 10 0 60982 19800.00000 0 -10874003.615 -12464990.675 19424984.705 10 0 60982 20700.00000 0 -8483650.507 -11751145.725 21002122.121 10 0 60982 21600.00000 0 -5881058.469 -11187755.809 22171837.778 10 0 60982 22500.00000 0 -3127551.791 -10807312.175 22911645.792 10 0 60982 23400.00000 0 -290216.446 -10631084.060 23207395.417 10 0 60982 24300.00000 0 2560644.664 -10668211.092 23053528.113 10 0 60982 25200.00000 0 5354185.107 -10915321.711 22453170.805 10 0 60982 26100.00000 0 8021707.549 -11356692.221 21418064.679 10 0 60982 27000.00000 0 10499265.841 -11964938.811 19968331.695 10 0 60982 27900.00000 0 12730070.781 -12702213.055 18132083.605 10 0 60982 28800.00000 0 14666601.864 -13521850.758 15944880.896 10 0 60982 29700.00000 0 16272339.404 -14370405.490 13449051.521 10 0 60982 30600.00000 0 17523046.814 -15189982.312 10692881.688 10 0 60982 31500.00000 0 18407551.078 -15920774.727 7729693.225 10 0 60982 32400.00000 0 18927989.869 -16503699.338 4616824.181 10 0 60982 33300.00000 0 19099515.582 -16883018.347 1414531.135 10 0 60982 34200.00000 0 18949468.770 -17008840.157 -1815166.549 10 0 60982 35100.00000 0 18516055.460 -16839392.995 -5009679.071 10 0 60982 36000.00000 0 17846583.395 -16342975.493 -8107052.709 10 0 60982 36900.00000 0 16995330.749 -15499501.192 -11047167.479 10 0 60982 37800.00000 0 16021136.354 -14301570.556 -13772902.914 10 0 60982 38700.00000 0 14984812.355 -12755023.512 -16231249.296 10 0 60982 39600.00000 0 13946487.931 -10878947.063 -18374342.524 10 0 60982 40500.00000 0 12962995.867 -8705135.224 -20160402.134 10 0 60982 41400.00000 0 12085412.240 -6277021.404 -21554553.745 10 0 60982 42300.00000 0 11356853.373 -3648125.568 -22529519.298 10 0 60982 43200.00000 0 10810623.514 -880078.964 -23066160.942 10 0 60982 44100.00000 0 10468792.234 1959692.886 -23153867.172 10 0 60982 45000.00000 0 10341262.477 4800533.521 -22790772.806 10 0 60982 45900.00000 0 10425369.600 7571259.164 -21983807.591 10 0 60982 46800.00000 0 10706029.256 10202890.308 -20748571.562 10 0 60982 47700.00000 0 11156428.671 12631297.280 -19109038.712 10 0 60982 48600.00000 0 11739232.600 14799649.148 -17097094.052 10 0 60982 49500.00000 0 12408253.127 16660563.252 -14751912.591 10 0 60982 50400.00000 0 13110512.461 18177865.081 -12119192.162 10 0 60982 51300.00000 0 13788610.705 19327884.616 -9250255.279 10 0 60982 52200.00000 0 14383297.352 20100234.944 -6201038.062 10 0 60982 53100.00000 0 14836136.227 20498041.013 -3030986.959 10 0 60982 54000.00000 0 15092149.551 20537610.008 198113.991 10 0 60982 54900.00000 0 15102327.645 20247558.760 3423361.057 10 0 60982 55800.00000 0 14825896.732 19667436.879 6581968.568 10 0 60982 56700.00000 0 14232247.866 18845905.824 9612501.021 10 0 60982 57600.00000 0 13302444.830 17838552.848 12456074.392 10 0 60982 58500.00000 0 12030247.136 16705434.045 15057502.441 10 0 60982 59400.00000 0 10422605.182 15508451.674 17366365.466 10 0 60982 60300.00000 0 8499607.119 14308677.306 19337980.963 10 0 60982 61200.00000 0 6293880.288 13163733.919 20934258.063 10 0 60982 62100.00000 0 3849472.784 12125346.731 22124420.393 10 0 60982 63000.00000 0 1220262.249 11237164.759 22885584.856 10 0 60982 63900.00000 0 -1532041.715 10532943.098 23203186.806 10 0 60982 64800.00000 0 -4340218.755 10035160.373 23071245.076 10 0 60982 65700.00000 0 -7134087.027 9754127.374 22492463.261 10 0 60982 66600.00000 0 -9843175.931 9687622.420 21478166.493 10 0 60982 67500.00000 0 -12399413.138 9821067.139 20048075.747 10 0 60982 68400.00000 0 -14739716.410 10128234.207 18229924.371 10 0 60982 69300.00000 0 -16808384.673 10572456.740 16058924.108 10 0 60982 70200.00000 0 -18559191.064 11108288.551 13577090.391 10 0 60982 71100.00000 0 -19957092.754 11683545.933 10832439.057 10 0 60982 72000.00000 0 -20979487.812 12241645.911 7878068.892 10 0 60982 72900.00000 0 -21616967.757 12724143.530 4771146.554 10 0 60982 73800.00000 0 -21873535.008 13073362.292 1571812.274 10 0 60982 74700.00000 0 -21766276.256 13235007.668 -1657973.529 10 0 60982 75600.00000 0 -21324505.239 13160653.927 -4855621.317 10 0 60982 76500.00000 0 -20588410.333 12809999.378 -7959118.776 10 0 60982 77400.00000 0 -19607263.036 12152794.358 -10908229.439 10 0 60982 78300.00000 0 -18437261.841 11170359.552 -13645660.551 10 0 60982 79200.00000 0 -17139101.402 9856629.048 -16118177.474 10 0 60982 80100.00000 0 -15775368.620 8218672.116 -18277642.766 10 0 60982 81000.00000 0 -14407874.801 6276669.394 -20081959.389 10 0 60982 81900.00000 0 -13095035.924 4063341.842 -21495899.209 10 0 60982 82800.00000 0 -11889411.367 1622853.875 -22491800.061 10 0 60982 83700.00000 0 -10835504.954 -990765.872 -23050117.076 10 0 60982 84600.00000 0 -9967921.398 -3715622.242 -23159816.763 10 0 60982 85500.00000 0 -9309956.407 -6484287.934 -22818605.234 10 0 60983 0.00000 0 -8872680.563 -9226378.101 -22032985.324 10 0 60983 900.00000 0 -8654556.048 -11871259.883 -20818140.033 10 0 60983 1800.00000 0 -8641603.461 -14350780.342 -19197644.869 10 0 60983 2700.00000 0 -8808111.186 -16601903.613 -17203012.581 10 0 60983 3600.00000 0 -9117857.997 -18569142.984 -14873079.588 10 0 60983 4500.00000 0 -9525796.528 -20206687.093 -12253245.595 10 0 60983 5400.00000 0 -9980125.691 -21480130.491 -9394581.398 10 0 60983 6300.00000 0 -10424663.138 -22367735.801 -6352822.869 10 0 60983 7200.00000 0 -10801415.848 -22861174.573 -3187271.653 10 0 60983 8100.00000 0 -11053238.303 -22965716.353 40374.708 10 0 60983 9000.00000 0 -11126463.931 -22699859.081 3267239.029 10 0 60983 9900.00000 0 -10973396.827 -22094417.932 6430501.821 10 0 60983 10800.00000 0 -10554556.934 -21191112.879 9468634.223 10 0 60983 11700.00000 0 -9840582.787 -20040716.520 12322601.342 10 0 60983 12600.00000 0 -8813710.922 -18700842.219 14937011.743 10 0 60983 13500.00000 0 -7468769.414 -17233467.430 17261190.449 10 0 60983 14400.00000 0 -5813643.924 -15702297.699 19250154.814 10 0 60983 15300.00000 0 -3869197.114 -14170082.876 20865475.011 10 0 60983 16200.00000 0 -1668645.282 -12695998.209 22076003.651 10 0 60983 17100.00000 0 743581.311 -11333199.523 22858461.868 10 0 60983 18000.00000 0 3313446.713 -10126653.631 23197872.208 10 0 60983 18900.00000 0 5979319.317 -9111333.056 23087831.608 10 0 60983 19800.00000 0 8674300.736 -8310848.541 22530620.734 10 0 60983 20700.00000 0 11328777.762 -7736574.429 21537148.757 10 0 60983 21600.00000 0 13873092.928 -7387301.508 20126735.485 10 0 60983 22500.00000 0 16240224.574 -7249430.188 18326735.395 10 0 60983 23400.00000 0 18368367.013 -7297694.691 16172010.737 10 0 60983 24300.00000 0 20203305.525 -7496387.229 13704263.371 10 0 60983 25200.00000 0 21700489.178 -7801030.628 10971237.355 10 0 60983 26100.00000 0 22826716.626 -8160429.418 8025806.649 10 0 60983 27000.00000 0 23561365.667 -8519013.737 4924964.353 10 0 60983 27900.00000 0 23897115.892 -8819378.119 1728731.803 10 0 60983 28800.00000 0 23840134.333 -9004908.923 -1500992.391 10 0 60983 29700.00000 0 23409716.122 -9022390.123 -4701622.043 10 0 60983 30600.00000 0 22637394.619 -8824477.701 -7811089.458 10 0 60983 31500.00000 0 21565557.481 -8371937.960 -10769044.912 10 0 60983 32400.00000 0 20245625.820 -7635554.493 -13518026.488 10 0 60983 33300.00000 0 18735871.909 -6597622.042 -16004577.593 10 0 60983 34200.00000 0 17098966.241 -5252962.480 -18180290.189 10 0 60983 35100.00000 0 15399356.247 -3609417.858 -20002753.136 10 0 60983 36000.00000 0 13700586.309 -1687797.308 -21436386.734 10 0 60983 36900.00000 0 12062671.419 478722.651 -22453146.563 10 0 60983 37800.00000 0 10539634.810 2845721.815 -23033082.241 10 0 60983 38700.00000 0 9177313.222 5359139.367 -23164739.402 10 0 60983 39600.00000 0 8011522.419 7957291.234 -22845396.161 10 0 60983 40500.00000 0 7066660.526 10573218.960 -22081128.545 10 0 60983 41400.00000 0 6354808.364 13137272.995 -20886702.668 10 0 60983 42300.00000 0 5875365.024 15579822.903 -19285294.900 10 0 60983 43200.00000 0 5615234.138 17833981.250 -17308044.747 10 0 60983 44100.00000 0 5549552.857 19838226.891 -14993448.660 10 0 60983 45000.00000 0 5642932.258 21538817.185 -12386606.412 10 0 60983 45900.00000 0 5851155.856 22891887.451 -9538334.890 10 0 60983 46800.00000 0 6123263.148 23865148.993 -6504167.132 10 0 60983 47700.00000 0 6403928.384 24439114.132 -3343257.068 10 0 60983 48600.00000 0 6636032.057 24607796.863 -117212.557 10 0 60983 49500.00000 0 6763314.311 24378860.302 3111119.125 10 0 60983 50400.00000 0 6732996.031 23773205.785 6278888.109 10 0 60983 51300.00000 0 6498255.101 22824022.446 9324475.581 10 0 60983 52200.00000 0 6020451.778 21575339.081 12188699.050 10 0 60983 53100.00000 0 5271008.315 20080141.131 14815964.942 10 0 60983 54000.00000 0 4232863.117 18398133.745 17155345.778 10 0 60983 54900.00000 0 2901438.144 16593246.365 19161561.220 10 0 60983 55800.00000 0 1285079.197 14730984.537 20795844.572 10 0 60983 56700.00000 0 -595048.959 12875740.269 22026679.123 10 0 60983 57600.00000 0 -2705607.805 11088173.192 22830391.526 10 0 60983 58500.00000 0 -5002243.332 9422771.040 23191592.358 10 0 60983 59400.00000 0 -7431209.072 7925689.792 23103457.038 10 0 60983 60300.00000 0 -9931386.666 6632961.618 22567843.192 10 0 60983 61200.00000 0 -12436620.707 5569143.249 21595243.424 10 0 60983 62100.00000 0 -14878272.010 4746458.884 20204575.272 10 0 60983 63000.00000 0 -17187884.724 4164471.405 18422812.764 10 0 60983 63900.00000 0 -19299858.179 3810293.897 16284466.649 10 0 60983 64800.00000 0 -21154014.156 3659331.388 13830922.826 10 0 60983 65700.00000 0 -22697954.468 3676521.008 11109650.916 10 0 60983 66600.00000 0 -23889112.072 3818018.299 8173297.196 10 0 60983 67500.00000 0 -24696411.277 4033259.053 5078678.239 10 0 60983 68400.00000 0 -25101468.359 4267310.382 1885693.497 10 0 60983 69300.00000 0 -25099282.561 4463412.641 -1343823.198 10 0 60983 70200.00000 0 -24698388.294 4565605.519 -4547291.917 10 0 60983 71100.00000 0 -23920461.454 4521327.895 -7662592.407 10 0 60983 72000.00000 0 -22799395.414 4283881.631 -10629264.403 10 0 60983 72900.00000 0 -21379884.287 3814654.845 -13389679.410 10 0 60983 73800.00000 0 -19715571.681 3085009.841 -15890161.268 10 0 60983 74700.00000 0 -17866841.455 2077754.552 -18082033.461 10 0 60983 75600.00000 0 -15898342.149 788133.558 -19922572.546 10 0 60983 76500.00000 0 -13876348.123 -775705.373 -21375848.629 10 0 60983 77400.00000 0 -11866067.518 -2592791.364 -22413435.959 10 0 60983 78300.00000 0 -9929009.644 -4629956.352 -23014979.081 10 0 60983 79200.00000 0 -8120522.110 -6842983.130 -23168602.719 10 0 60983 80100.00000 0 -6487601.148 -9178229.596 -22871156.511 10 0 60983 81000.00000 0 -5067067.245 -11574663.024 -22128288.888 10 0 60983 81900.00000 0 -3884182.930 -13966220.566 -20954347.718 10 0 60983 82800.00000 0 -2951771.051 -16284397.939 -19372108.767 10 0 60983 83700.00000 0 -2269870.620 -18460958.188 -17412336.567 10 0 60983 84600.00000 0 -1825944.518 -20430646.849 -15113185.693 10 0 60983 85500.00000 0 -1595629.759 -22133799.144 -12519453.966 10 0 60984 0.00000 0 -1543997.693 -23518728.920 -9681702.543 10 0 60984 900.00000 0 -1627269.609 -24543798.952 -6655259.011 10 0 60984 1800.00000 0 -1794913.555 -25179083.179 -3499127.713 10 0 60984 2700.00000 0 -1992031.634 -25407553.094 -274824.716 10 0 60984 3600.00000 0 -2161934.769 -25225736.592 2954834.732 10 0 60984 4500.00000 0 -2248793.819 -24643822.914 6126972.515 10 0 60984 5400.00000 0 -2200252.994 -23685210.199 9179882.023 10 0 60984 6300.00000 0 -1969893.422 -22385516.133 12054235.339 10 0 60984 7200.00000 0 -1519441.669 -20791094.940 14694238.895 10 0 60984 8100.00000 0 -820629.251 -18957124.754 17048714.791 10 0 60984 9000.00000 0 143375.402 -16945347.098 19072086.920 10 0 60984 9900.00000 0 1377022.637 -14821554.391 20725253.438 10 0 60984 10800.00000 0 2871964.173 -12652931.218 21976329.758 10 0 60984 11700.00000 0 4607179.573 -10505360.437 22801249.173 10 0 60984 12600.00000 0 6549640.849 -8440805.881 23184211.087 10 0 60984 13500.00000 0 8655487.206 -6514879.470 23117969.859 10 0 60984 14400.00000 0 10871661.056 -4774692.245 22603960.229 10 0 60984 15300.00000 0 13137937.593 -3257076.661 21652258.105 10 0 60984 16200.00000 0 15389264.386 -1987251.862 20281378.376 10 0 60984 17100.00000 0 17558314.889 -977985.212 18517914.021 10 0 60984 18000.00000 0 19578151.109 -229283.052 16396023.462 10 0 60984 18900.00000 0 21384886.260 271378.134 13956775.589 10 0 60984 19800.00000 0 22920238.096 548290.984 11247364.277 10 0 60984 20700.00000 0 24133867.885 636259.538 8320206.529 10 0 60984 21600.00000 0 24985408.510 578897.509 5231940.499 10 0 60984 22500.00000 0 25446097.676 426553.890 2042341.551 10 0 60984 23400.00000 0 25499948.079 233952.803 -1186823.737 10 0 60984 24300.00000 0 25144405.320 57646.529 -4392984.396 10 0 60984 25200.00000 0 24390465.255 -46611.266 -7513970.454 10 0 60984 26100.00000 0 23262244.804 -26461.435 -10489213.976 10 0 60984 27000.00000 0 21796022.878 164605.406 -13260922.710 10 0 60984 27900.00000 0 20038790.181 565038.544 -15775203.608 10 0 60984 28800.00000 0 18046367.223 1203356.167 -17983114.185 10 0 60984 29700.00000 0 15881168.080 2096694.143 -19841620.972 10 0 60984 30600.00000 0 13609702.430 3249837.751 -21314445.940 10 0 60984 31500.00000 0 11299919.595 4654779.400 -22372783.816 10 0 60984 32400.00000 0 9018505.201 6290823.370 -22995875.612 10 0 60984 33300.00000 0 6828243.251 8125235.667 -23171426.383 10 0 60984 34200.00000 0 4785554.023 10114413.961 -22895858.191 10 0 60984 35100.00000 0 2938310.920 12205530.544 -22174392.392 10 0 60984 36000.00000 0 1324027.930 14338580.952 -21020958.710 10 0 60984 36900.00000 0 -31506.143 16448753.370 -19457931.995 10 0 60984 37800.00000 0 -1115089.334 18469019.960 -17515701.039 10 0 60984 38700.00000 0 -1926428.069 20332841.336 -15232077.351 10 0 60984 39600.00000 0 -2477905.569 21976870.181 -12651555.191 10 0 60984 40500.00000 0 -2793807.794 23343539.625 -9824437.456 10 0 60984 41400.00000 0 -2909040.863 24383426.632 -6805844.929 10 0 60984 42300.00000 0 -2867395.775 25057290.051 -3654629.192 10 0 60984 43200.00000 0 -2719435.786 25337696.852 -432211.554 10 0 60984 44100.00000 0 -2520097.950 25210167.711 2798627.918 10 0 60984 45000.00000 0 -2326112.521 24673793.823 5974986.142 10 0 60984 45900.00000 0 -2193351.504 23741299.534 9035072.022 10 0 60984 46800.00000 0 -2174220.287 22438549.167 11919415.474 10 0 60984 47700.00000 0 -2315204.035 20803520.115 14572026.076 10 0 60984 48600.00000 0 -2654673.312 18884786.797 16941478.434 10 0 60984 49500.00000 0 -3221041.924 16739580.474 18981903.369 10 0 60984 50400.00000 0 -4031354.456 14431507.397 20653866.261 10 0 60984 51300.00000 0 -5090362.509 12028021.418 21925116.672 10 0 60984 52200.00000 0 -6390127.769 9597756.786 22771196.160 10 0 60984 53100.00000 0 -7910167.939 7207831.900 23175894.119 10 0 60984 54000.00000 0 -9618138.884 4921235.230 23131544.530 10 0 60984 54900.00000 0 -11471024.296 2794400.516 22639159.385 10 0 60984 55800.00000 0 -13416783.376 875070.079 21708397.494 10 0 60984 56700.00000 0 -15396388.360 -799467.271 20357370.127 10 0 60984 57600.00000 0 -17346167.961 -2203692.795 18612287.701 10 0 60984 58500.00000 0 -19200360.279 -3324676.295 16506954.301 10 0 60984 59400.00000 0 -20893770.250 -4162364.383 14082119.358 10 0 60984 60300.00000 0 -22364422.279 -4729328.061 11384698.191 10 0 60984 61200.00000 0 -23556098.729 -5049981.263 8466875.462 10 0 60984 62100.00000 0 -24420659.333 -5159303.676 5385107.672 10 0 60984 63000.00000 0 -24920045.309 -5101121.602 2199042.787 10 0 60984 63900.00000 0 -25027884.510 -4926018.914 -1029623.185 10 0 60984 64800.00000 0 -24730630.211 -4688965.661 -4238331.495 10 0 60984 65700.00000 0 -24028185.042 -4446763.837 -7364865.620 10 0 60984 66600.00000 0 -22933982.793 -4255417.711 -10348552.992 10 0 60984 67500.00000 0 -21474523.191 -4167539.637 -13131440.466 10 0 60984 68400.00000 0 -19688377.479 -4229901.148 -15659420.744 10 0 60984 69300.00000 0 -17624704.754 -4481233.378 -17883287.691 10 0 60984 70200.00000 0 -15341339.537 -4950370.791 -19759699.737 10 0 60984 71100.00000 0 -12902529.099 -5654818.049 -21252032.152 10 0 60984 72000.00000 0 -10376414.005 -6599802.340 -22331101.017 10 0 60984 72900.00000 0 -7832356.247 -7777853.196 -22975744.087 10 0 60984 73800.00000 0 -5338226.012 -9168929.768 -23173246.429 10 0 60984 74700.00000 0 -2957760.210 -10741092.385 -22919601.659 10 0 60984 75600.00000 0 -748103.039 -12451692.198 -22219602.701 10 0 60984 76500.00000 0 1242368.466 -14249030.582 -21086759.396 10 0 60984 77400.00000 0 2975842.740 -16074419.785 -19543043.613 10 0 60984 78300.00000 0 4426420.464 -17864558.908 -17618466.133 10 0 60984 79200.00000 0 5580953.430 -19554125.523 -15350492.972 10 0 60984 80100.00000 0 6439340.624 -21078473.559 -12783312.324 10 0 60984 81000.00000 0 7014269.854 -22376323.179 -9966966.539 10 0 60984 81900.00000 0 7330416.966 -23392328.413 -6956366.554 10 0 60984 82800.00000 0 7423137.994 -24079413.262 -3810208.928 10 0 60984 83700.00000 0 7336711.402 -24400776.814 -589817.786 10 0 60984 84600.00000 0 7122206.893 -24331482.147 2642064.347 10 0 60984 85500.00000 0 6835073.178 -23859561.666 5822511.677 10 0 60985 0.00000 0 6532549.015 -22986592.516 8889650.504 10 0 60985 900.00000 0 6271008.814 -21727717.845 11783871.161 10 0 60985 1800.00000 0 6103357.059 -20111115.215 14448987.955 10 0 60985 2700.00000 0 6076582.151 -18176934.118 16833329.697 10 0 60985 3600.00000 0 6229573.868 -15975749.454 18890735.582 10 0 60985 4500.00000 0 6591296.298 -13566596.485 20581439.397 10 0 60985 5400.00000 0 7179392.732 -11014670.255 21872825.724 10 0 60985 6300.00000 0 7999280.446 -8388785.787 22740044.908 10 0 60985 7200.00000 0 9043772.475 -5758704.698 23166476.526 10 0 60985 8100.00000 0 10293241.422 -3192438.601 23144034.025 10 0 60985 9000.00000 0 11716317.868 -753639.991 22673306.205 10 0 60985 9900.00000 0 13271093.899 1500812.872 21763534.062 10 0 60985 10800.00000 0 14906781.639 3522938.979 20432424.324 10 0 60985 11700.00000 0 16565758.118 5275399.666 18705803.745 10 0 60985 12600.00000 0 18185912.024 6732795.570 16617120.822 10 0 60985 13500.00000 0 19703195.600 7882463.598 14206804.136 10 0 60985 14400.00000 0 21054276.403 8724742.530 11521488.926 10 0 60985 15300.00000 0 22179179.428 9272697.480 8613125.827 10 0 60985 16200.00000 0 23023810.190 9551315.684 5537987.837 10 0 60985 17100.00000 0 23542253.971 9596207.692 2355593.504 10 0 60985 18000.00000 0 23698755.247 9451868.527 -872433.916 10 0 60985 18900.00000 0 23469294.211 9169571.657 -4083550.196 10 0 60985 19800.00000 0 22842693.606 8804984.021 -7215494.630 10 0 60985 20700.00000 0 21821208.341 8415602.193 -10207492.388 10 0 60985 21600.00000 0 20420571.607 8058117.573 -13001431.722 10 0 60985 22500.00000 0 18669493.754 7785821.690 -15542993.257 10 0 60985 23400.00000 0 16608632.955 7646161.489 -17782709.217 10 0 60985 24300.00000 0 14289078.801 7678548.439 -19676931.770 10 0 60985 25200.00000 0 11770410.376 7912514.988 -21188691.146 10 0 60985 26100.00000 0 9118408.426 8366297.575 -22288426.258 10 0 60985 27000.00000 0 6402515.861 9045907.659 -22954572.895 10 0 60985 27900.00000 0 3693151.682 9944731.825 -23173997.207 10 0 60985 28800.00000 0 1058989.863 11043679.771 -22942265.148 10 0 60985 29700.00000 0 -1435683.483 12311875.818 -22263741.680 10 0 60985 30600.00000 0 -3733424.359 13707866.464 -21151516.827 10 0 60985 31500.00000 0 -5785793.859 15181294.433 -19627159.148 10 0 60985 32400.00000 0 -7555139.270 16674969.519 -17720300.651 10 0 60985 33300.00000 0 -9015918.688 18127249.358 -15468060.689 10 0 60985 34200.00000 0 -10155513.778 19474629.542 -12914319.846 10 0 60985 35100.00000 0 -10974497.078 20654433.286 -10108858.063 10 0 60985 36000.00000 0 -11486343.549 21607486.166 -7106374.287 10 0 60985 36900.00000 0 -11716599.870 22280661.890 -3965407.688 10 0 60985 37800.00000 0 -11701548.289 22629190.443 -747182.653 10 0 60985 38700.00000 0 -11486423.558 22618630.151 2485598.531 10 0 60985 39600.00000 0 -11123260.551 22226419.681 5669990.166 10 0 60985 40500.00000 0 -10668465.872 21442944.199 8744039.363 10 0 60985 41400.00000 0 -10180218.241 20272070.844 11647998.666 10 0 60985 42300.00000 0 -9715809.344 18731131.530 14325490.564 10 0 60985 43200.00000 0 -9329038.764 16850354.609 16724600.873 10 0 60985 44100.00000 0 -9067773.697 14671770.237 18798879.840 10 0 60985 45000.00000 0 -8971776.474 12247636.290 20508232.134 10 0 60985 45900.00000 0 -9070890.986 9638451.408 21819679.553 10 0 60985 46800.00000 0 -9383663.458 6910638.488 22707983.103 10 0 60985 47700.00000 0 -9916454.446 4133995.051 23156114.001 10 0 60985 48600.00000 0 -10663078.169 1379015.937 23155566.157 10 0 60985 49500.00000 0 -11604983.279 -1285801.668 22706505.658 10 0 60985 50400.00000 0 -12711966.772 -3796560.607 21817755.611 10 0 60985 51300.00000 0 -13943390.826 -6096367.594 20506617.557 10 0 60985 52200.00000 0 -15249851.811 -8137441.029 18798533.386 10 0 60985 53100.00000 0 -16575232.178 -9882837.547 16726594.272 10 0 60985 54000.00000 0 -17859050.336 -11307727.724 14330905.741 10 0 60985 54900.00000 0 -19039011.318 -12400169.796 11657820.344 10 0 60985 55800.00000 0 -20053652.672 -13161350.632 8759051.774 10 0 60985 56700.00000 0 -20844975.848 -13605285.014 5690686.381 10 0 60985 57600.00000 0 -21360953.678 -13757986.435 2512110.007 10 0 60985 58500.00000 0 -21557809.230 -13656144.337 -715130.203 10 0 60985 59400.00000 0 -21401970.441 -13345363.219 -3928507.920 10 0 60985 60300.00000 0 -20871617.938 -12878037.239 -7065721.600 10 0 60985 61200.00000 0 -19957760.058 -12310949.320 -10065897.425 10 0 60985 62100.00000 0 -18664788.422 -11702695.483 -12870768.197 10 0 60985 63000.00000 0 -17010488.871 -11111042.692 -15425805.406 10 0 60985 63900.00000 0 -15025505.222 -10590331.629 -17681282.310 10 0 60985 64800.00000 0 -12752276.046 -10189034.255 -19593247.085 10 0 60985 65700.00000 0 -10243486.791 -9947569.785 -21124386.706 10 0 60985 66600.00000 0 -7560099.991 -9896472.194 -22244764.122 10 0 60985 67500.00000 0 -4769044.093 -10054987.771 -22932413.705 10 0 60985 68400.00000 0 -1940656.047 -10430163.362 -23173782.586 10 0 60985 69300.00000 0 854016.608 -11016465.311 -22964008.335 10 0 60985 70200.00000 0 3545942.136 -11795946.789 -22307026.661 10 0 60985 71100.00000 0 6070745.997 -12738957.913 -21215506.023 10 0 60985 72000.00000 0 8371156.866 -13805369.915 -19710609.536 10 0 60985 72900.00000 0 10399154.919 -14946262.565 -17821588.008 10 0 60985 73800.00000 0 12117732.366 -16106004.026 -15585211.486 10 0 60985 74700.00000 0 13502192.418 -17224635.244 -13045050.119 10 0 60985 75600.00000 0 14540932.437 -18240457.597 -10250618.487 10 0 60985 76500.00000 0 15235679.018 -19092713.517 -7256400.522 10 0 60985 77400.00000 0 15601166.136 -19724245.565 -4120774.941 10 0 60985 78300.00000 0 15664271.443 -20084020.218 -904863.354 10 0 60985 79200.00000 0 15462649.042 -20129408.415 2328675.128 10 0 60985 80100.00000 0 15042918.623 -19828125.442 5516877.697 10 0 60985 81000.00000 0 14458489.755 -19159747.540 8597714.571 10 0 60985 81900.00000 0 13767115.480 -18116740.926 11511303.350 10 0 60985 82800.00000 0 13028280.489 -16704960.028 14201076.402 10 0 60985 83700.00000 0 12300535.685 -14943594.445 16614878.181 10 0 60985 84600.00000 0 11638892.553 -12864567.552 18705971.248 10 0 60985 85500.00000 0 11092387.476 -10511412.810 20433932.043 99